TimeCST,TemperatureF,Dew PointF,Humidity,Sea Level PressureIn,VisibilityMPH,Wind Direction,Wind SpeedMPH,Gust SpeedMPH,PrecipitationIn,Events,Conditions,WindDirDegrees,DateUTC
12:52 AM,34.0,28.0,79,30.08,10.0,Calm,Calm,-,N/A,,Clear,0,2013-02-06 06:52:00
1:52 AM,37.9,30.0,73,30.08,10.0,East,3.5,-,N/A,,Clear,80,2013-02-06 07:52:00
2:52 AM,39.0,30.0,70,30.08,10.0,Calm,Calm,-,N/A,,Clear,0,2013-02-06 08:52:00
3:52 AM,39.0,30.0,70,30.06,10.0,Calm,Calm,-,N/A,,Clear,0,2013-02-06 09:52:00
4:52 AM,39.0,28.9,67,30.06,10.0,Variable,3.5,-,N/A,,Clear,0,2013-02-06 10:52:00
5:52 AM,37.0,28.9,73,30.08,10.0,Calm,Calm,-,N/A,,Clear,0,2013-02-06 11:52:00
6:52 AM,34.0,28.0,79,30.09,10.0,Calm,Calm,-,N/A,,Clear,0,2013-02-06 12:52:00
7:52 AM,37.9,28.9,70,30.09,10.0,East,3.5,-,N/A,,Clear,80,2013-02-06 13:52:00
8:52 AM,46.9,30.9,54,30.08,10.0,SE,10.4,-,N/A,,Clear,130,2013-02-06 14:52:00
9:52 AM,51.1,33.1,50,30.08,10.0,SSE,6.9,-,N/A,,Partly Cloudy,150,2013-02-06 15:52:00
10:52 AM,57.9,36.0,44,30.06,10.0,South,10.4,17.3,N/A,,Clear,170,2013-02-06 16:52:00
11:52 AM,63.0,39.9,43,30.02,10.0,South,13.8,18.4,N/A,,Clear,170,2013-02-06 17:52:00
12:52 PM,66.0,42.1,42,29.99,10.0,South,16.1,19.6,N/A,,Partly Cloudy,190,2013-02-06 18:52:00
1:52 PM,64.9,43.0,45,29.95,10.0,South,12.7,-,N/A,,Scattered Clouds,190,2013-02-06 19:52:00
2:52 PM,64.9,44.1,47,29.92,10.0,South,11.5,16.1,N/A,,Mostly Cloudy,170,2013-02-06 20:52:00
3:52 PM,66.0,44.1,45,29.91,10.0,SSE,12.7,19.6,N/A,,Mostly Cloudy,150,2013-02-06 21:52:00
4:52 PM,64.0,43.0,46,29.90,10.0,South,10.4,-,N/A,,Mostly Cloudy,170,2013-02-06 22:52:00
5:52 PM,62.1,43.0,50,29.91,10.0,South,9.2,-,N/A,,Overcast,170,2013-02-06 23:52:00
6:52 PM,59.0,39.0,48,29.91,10.0,SSE,8.1,17.3,N/A,,Overcast,160,2013-02-07 00:52:00
7:52 PM,57.0,39.0,51,29.92,10.0,SSE,6.9,-,N/A,,Overcast,150,2013-02-07 01:52:00
8:52 PM,55.0,39.9,57,29.92,10.0,SSE,8.1,-,N/A,,Overcast,150,2013-02-07 02:52:00
9:52 PM,54.0,39.9,59,29.92,10.0,SSE,9.2,-,N/A,,Overcast,160,2013-02-07 03:52:00
10:52 PM,51.1,39.9,66,29.92,10.0,SSE,4.6,-,N/A,,Clear,160,2013-02-07 04:52:00
11:19 PM,50.0,39.2,66,29.93,10.0,SSE,3.5,-,N/A,,Mostly Cloudy,150,2013-02-07 05:19:00
11:52 PM,50.0,39.9,68,29.91,10.0,SE,3.5,-,N/A,,Mostly Cloudy,140,2013-02-07 05:52:00